Theta_e
293 288 285 288 290 288 287 286 286 288 293 289 290 289 292 295 293 290 290 290 290 290 292 292 292 291 292 292 292 293 293 294 296 297 301 303 304 304 305 313 314 316 317 313
289 286 292 292 291 290 288 286 286 289 292 290 290 289 293 292 291 291 290 290 289 289 289 290 289 289 289 290 291 292 292 292 293 295 296 299 298 298 299 303 305 305 311 313
288 292 294 293 290 289 288 286 286 288 289 288 287 286 290 290 291 291 291 290 290 288 287 287 288 287 287 287 289 290 291 292 292 292 293 294 294 294 294 294 296 297 300 305
289 293 292 290 290 291 287 291 290 288 285 282 287 279 286 288 288 288 288 287 287 287 287 288 287 286 286 285 287 289 290 290 291 291 290 289 289 288 289 290 291 292 293 294
290 289 289 289 290 292 289 290 288 286 283 281 282 279 283 287 285 286 286 287 286 286 286 286 286 287 286 285 285 285 287 287 288 288 289 289 288 288 289 289 289 289 290 291
290 290 290 290 290 290 291 288 287 284 283 277 283 282 282 284 286 285 286 286 287 286 286 286 287 286 285 284 283 284 285 285 285 285 285 285 285 285 285 285 285 286 288 289
288 288 290 290 287 288 287 285 279 277 275 277 284 280 284 285 287 287 285 285 286 285 285 285 285 284 284 283 282 284 284 283 284 284 283 283 283 282 282 283 283 283 283 285
284 283 289 290 289 288 286 286 279 273 274 277 282 279 283 285 286 287 287 286 286 286 286 285 285 284 283 283 282 281 282 282 283 283 283 283 282 282 282 282 282 282 282 283
284 285 289 289 290 291 286 284 287 281 271 274 280 281 284 285 284 284 284 285 284 285 286 285 284 283 283 282 282 281 281 281 282 283 283 282 282 281 280 280 280 281 281 283
289 283 289 289 290 289 288 291 282 281 270 271 277 279 280 282 282 283 283 283 283 284 284 284 283 283 283 283 282 282 281 280 281 281 282 282 282 281 281 280 279 279 279 280
290 288 284 287 286 286 285 284 284 285 280 273 270 276 284 284 284 283 284 284 283 283 283 283 282 282 282 281 281 281 281 281 281 281 281 281 281 282 281 280 280 280 279 279
291 288 279 284 287 289 286 285 285 278 276 278 278 279 287 287 285 285 284 285 283 283 282 283 281 281 281 281 281 281 281 281 281 281 281 280 281 280 279 280 280 279 280 281
291 284 272 277 283 287 284 286 286 284 280 274 275 277 285 284 284 285 284 283 284 283 281 283 281 280 280 279 280 279 280 281 281 281 280 279 279 278 278 279 279 279 279 279
294 284 280 279 278 283 279 282 282 282 273 275 278 279 283 283 284 284 285 284 283 283 281 280 279 278 279 278 279 279 279 279 280 279 279 278 278 278 277 278 277 277 278 277
290 284 281 282 284 284 282 281 280 280 279 276 278 277 281 281 281 282 282 281 284 284 280 279 279 278 278 278 279 280 280 280 280 279 278 278 278 278 277 277 277 277 278 277
286 277 280 274 280 281 278 280 280 280 280 279 280 279 285 282 279 278 278 280 283 281 281 279 279 279 279 278 279 279 279 279 279 277 276 277 276 276 276 276 276 276 275 274
282 277 272 270 275 274 267 273 278 279 279 278 274 277 276 278 279 278 278 278 277 277 278 279 278 279 279 278 279 278 278 277 275 274 273 273 274 273 274 273 272 272 271 271
278 276 274 266 264 259 274 276 277 276 277 276 276 273 275 278 278 278 277 277 278 278 279 278 278 278 278 278 277 277 276 275 274 272 270 271 272 270 270 270 269 269 269 268
282 277 267 266 260 269 274 276 275 275 273 274 274 273 277 277 275 274 277 278 278 278 279 279 278 278 277 276 275 275 274 274 273 272 272 270 269 266 267 265 266 266 266 265
280 279 273 260 259 260 271 276 278 276 267 270 272 273 274 274 268 272 277 279 279 279 279 279 279 277 275 274 274 273 272 270 269 270 270 269 267 263 264 264 264 264 263 264
266 268 271 269 260 264 273 274 277 265 269 270 272 275 274 272 275 277 278 278 279 279 279 278 277 275 274 273 272 270 269 268 268 268 267 265 265 263 263 262 263 262 261 262
268 266 264 262 263 261 275 275 271 275 276 276 277 277 276 278 278 278 278 278 278 278 278 277 274 273 272 271 269 268 267 268 265 264 263 262 260 261 262 259 260 260 259 259
268 272 266 269 268 277 277 277 280 278 276 278 277 278 278 278 277 278 278 277 278 278 276 275 272 271 270 268 267 265 265 264 263 258 256 256 258 260 261 259 259 258 259 258
272 274 271 270 273 275 277 280 278 279 279 279 279 279 278 278 278 278 277 277 276 275 273 269 267 266 266 266 267 263 262 262 254 251 256 259 258 259 259 260 260 259 258 258
273 273 269 270 275 275 276 277 278 279 279 278 278 278 278 278 277 276 276 276 275 272 270 268 266 266 265 265 264 261 261 257 255 255 258 258 258 257 259 260 259 260 262 263
275 275 272 271 278 276 277 279 279 278 279 278 278 277 277 277 277 276 275 274 272 270 267 265 264 263 262 261 261 260 256 253 252 256 258 258 259 259 259 259 259 264 267 268
Wind_Speed
0 5 8 13 11 4 4 4 5 5 8 3 7 4 11 9 2 8 7 8 9 10 7 8 10 10 12 14 15 16 17 15 11 6 5 5 5 4 7 6 7 6 2 2
4 7 14 3 6 7 5 4 6 6 6 1 7 8 12 6 4 6 11 8 8 7 8 10 11 12 13 13 14 16 15 16 12 9 4 4 2 3 3 8 11 14 10 5
9 8 6 6 5 5 5 6 5 8 4 2 2 7 7 4 9 12 10 9 8 7 7 7 10 11 12 13 13 14 14 15 14 12 8 7 5 5 8 10 10 11 13 13
6 8 5 3 3 5 5 7 6 5 3 5 1 6 6 4 6 7 7 7 6 7 6 7 7 10 11 10 10 12 13 14 14 14 11 13 9 7 5 5 5 9 12 12
7 2 4 5 8 9 8 3 3 0 2 1 4 2 8 8 4 5 6 7 6 5 6 7 7 8 7 7 8 8 11 13 13 13 12 9 10 6 6 8 12 12 11 12
6 2 4 6 2 4 4 3 6 5 3 2 7 7 6 3 3 7 6 7 6 5 6 6 6 6 7 7 7 9 10 12 12 12 12 12 11 9 9 10 9 8 8 9
3 5 3 2 4 2 5 6 3 4 2 7 3 3 7 6 3 13 16 9 7 6 6 6 6 5 6 7 8 9 9 12 10 12 12 11 10 10 10 8 7 9 8 8
6 4 9 5 7 8 6 9 7 8 5 6 4 6 3 4 6 12 10 9 8 7 5 5 5 5 6 6 7 7 7 8 8 9 9 7 8 6 6 8 7 6 7 7
6 6 2 2 3 6 4 4 1 5 3 3 5 1 2 3 5 6 8 7 7 7 6 6 6 5 5 6 6 7 7 7 7 8 5 6 5 5 5 6 4 4 4 6
6 2 4 2 3 3 5 6 3 2 2 5 5 5 6 9 9 7 8 9 8 8 7 7 6 6 4 5 5 5 5 6 5 5 5 5 5 6 6 6 7 7 6 7
5 3 2 3 5 9 2 3 2 3 5 7 2 8 3 9 12 14 11 10 9 10 8 6 6 6 6 6 5 5 4 4 4 4 4 5 5 6 6 6 6 6 6 6
3 4 4 6 2 4 1 6 7 6 6 4 4 10 1 7 12 9 9 9 8 5 7 7 7 7 7 7 5 5 5 4 3 2 2 2 2 3 4 5 6 6 8 7
8 2 2 8 4 1 4 3 4 5 4 5 4 7 0 3 4 7 7 7 7 7 7 7 6 7 7 6 6 6 5 6 5 4 3 2 3 3 4 5 6 6 7 7
6 5 9 11 6 4 4 4 3 4 3 3 10 5 8 7 7 6 7 8 9 9 8 7 7 7 7 7 7 7 6 6 6 5 2 2 3 3 4 4 5 5 6 7
4 6 3 3 4 3 4 8 8 8 7 9 15 10 15 5 7 8 7 4 5 7 8 9 9 7 7 7 7 6 5 2 0 2 4 5 5 5 5 6 7 7 9 10
2 2 3 3 1 5 7 13 6 10 13 10 15 19 12 8 2 2 5 5 6 7 7 8 8 7 8 9 7 5 4 2 3 4 4 4 6 8 8 8 9 11 13 13
5 7 4 7 3 4 8 9 16 13 10 8 11 14 1 5 6 6 7 5 6 5 6 7 9 10 9 7 5 5 4 4 4 3 4 5 5 5 7 9 12 13 14 14
6 6 2 3 3 2 6 3 4 9 9 5 2 4 6 6 4 6 6 6 7 7 8 7 6 6 6 5 5 6 5 3 3 2 2 3 4 5 8 10 11 12 12 13
2 5 2 5 5 7 13 6 7 8 9 7 7 3 6 4 3 4 5 6 6 6 7 7 7 5 5 6 6 5 3 3 2 1 2 2 2 4 8 9 11 11 12 13
4 1 6 4 7 12 7 2 4 5 6 7 7 8 7 6 3 7 6 6 8 8 6 7 7 5 7 5 5 4 4 2 2 2 3 4 5 4 8 10 11 11 10 14
3 1 14 10 4 10 9 6 2 6 10 4 6 7 8 7 10 5 7 6 6 8 8 6 7 7 7 6 5 4 4 3 3 1 3 3 6 7 9 10 9 11 12 13
9 9 6 3 3 10 9 6 9 7 3 6 7 7 12 13 7 8 8 7 9 8 6 8 7 7 6 5 5 4 3 3 1 1 3 4 6 7 8 9 10 11 11 11
3 8 9 12 10 3 8 8 13 6 6 7 7 7 12 11 9 10 10 9 9 8 8 7 7 7 5 4 4 4 2 0 1 1 4 6 7 7 8 8 11 9 9 8
5 4 4 5 5 6 9 12 5 8 9 8 8 10 10 11 11 12 9 8 8 7 9 6 7 6 5 4 3 2 1 1 0 3 5 6 6 6 6 6 8 8 8 8
6 6 5 4 5 5 10 9 9 10 10 9 9 11 14 12 12 10 9 8 7 6 6 7 7 6 6 5 3 2 3 1 2 4 5 6 5 5 7 7 8 8 10 11
8 10 5 9 17 10 11 9 8 10 13 13 12 11 11 11 13 9 9 5 6 8 6 5 5 5 5 4 2 2 3 2 3 4 4 5 5 6 6 7 9 18 21 23
Wind_Direction
148 106 203 209 203 183 184 188 225 269 263 209 255 264 276 259 92 130 118 92 78 63 43 32 29 26 30 32 33 25 23 15 23 10 10 26 26 2 17 20 24 38 51 145
59 214 230 183 165 218 252 254 251 268 260 234 282 278 271 359 38 131 124 104 93 72 43 35 28 30 32 34 34 34 32 26 23 22 4 32 21 25 17 13 23 20 10 15
173 218 184 179 212 183 216 197 220 229 318 267 332 301 288 49 80 80 72 87 86 91 79 44 35 29 33 32 30 36 35 34 32 27 27 26 27 21 17 16 21 18 16 12
231 258 186 174 215 161 264 207 206 220 122 228 104 273 293 157 112 79 78 69 73 75 56 48 39 45 40 20 32 42 39 41 37 34 43 47 49 36 3 354 355 13 24 27
238 223 158 218 227 163 229 161 165 196 186 52 281 330 257 115 158 133 117 112 97 87 82 63 46 49 37 34 34 33 44 43 39 43 44 56 59 41 29 23 17 12 10 18
232 294 188 200 76 153 141 82 49 49 88 305 229 176 274 195 220 140 123 116 119 110 91 80 62 44 29 21 39 45 48 45 43 44 41 52 53 48 41 31 29 13 8 10
226 216 219 163 113 34 104 79 316 333 1 231 175 130 240 305 289 156 147 139 131 127 105 91 76 61 56 40 35 55 45 47 38 46 46 35 36 42 48 44 33 21 11 9
174 278 169 181 199 186 183 160 170 220 206 241 331 244 288 7 60 108 126 139 146 143 135 122 120 102 83 70 61 65 59 55 41 48 46 35 38 37 33 33 30 26 16 359
171 264 106 172 166 143 201 181 201 99 32 33 219 74 102 103 90 123 146 150 158 155 154 156 127 112 108 90 74 68 60 54 50 49 49 46 46 44 33 33 33 20 355 354
218 209 201 189 112 59 139 164 82 9 188 248 280 261 201 197 184 189 182 181 182 178 177 167 154 142 129 119 112 96 90 84 69 60 44 40 26 22 15 14 12 6 352 347
148 134 210 102 201 177 137 205 193 158 157 183 233 257 227 174 181 196 200 197 192 195 186 167 159 153 149 150 154 146 123 114 100 82 57 43 24 12 1 5 354 344 335 334
174 146 184 194 328 328 226 193 171 165 245 233 180 257 28 163 187 184 202 203 204 185 176 171 167 170 172 170 165 172 179 173 177 160 112 48 21 2 349 342 337 337 325 325
181 172 30 350 351 22 219 200 134 101 81 223 193 258 344 157 153 211 207 218 209 186 180 174 172 182 182 183 181 180 184 192 196 184 193 249 280 308 305 308 309 310 305 302
130 169 176 226 187 150 198 176 152 142 136 212 233 293 245 214 218 232 250 232 210 196 185 185 184 190 190 191 193 194 197 194 190 186 197 319 331 312 300 299 297 285 282 286
159 199 164 201 142 181 216 234 170 198 203 208 263 227 257 259 211 235 226 232 200 190 189 194 194 197 201 205 212 208 214 210 123 16 13 355 336 330 332 340 330 322 320 315
2 208 122 287 200 205 245 256 190 219 244 243 252 268 270 286 181 166 213 213 209 205 205 209 212 203 209 214 214 202 185 118 71 56 14 350 354 352 345 339 334 324 317 315
156 134 106 257 36 61 311 234 225 235 213 219 230 242 204 259 240 222 219 199 201 196 201 209 211 212 219 215 191 169 125 95 68 41 3 360 354 350 343 331 323 318 315 313
140 108 80 210 37 267 246 249 248 232 251 200 228 225 208 228 234 191 200 194 223 223 224 223 223 230 219 158 122 122 115 110 98 64 340 1 17 336 321 316 310 308 307 306
179 133 140 164 207 311 288 232 180 179 263 183 195 230 224 215 76 283 228 215 217 208 216 217 214 190 148 137 130 121 113 98 45 354 80 76 323 295 307 301 301 302 302 301
176 288 174 126 171 210 243 212 130 111 287 217 167 212 194 138 167 243 207 206 229 230 223 208 184 141 131 135 125 129 137 149 223 96 345 328 313 296 300 296 297 295 291 293
94 25 211 219 226 284 239 220 109 114 247 198 182 215 167 188 207 203 194 238 233 234 221 187 168 162 147 135 138 147 164 197 129 52 316 302 298 294 288 286 290 294 292 292
163 163 194 95 169 268 176 81 178 203 191 180 202 202 193 213 220 223 233 238 243 223 190 171 157 155 144 140 136 143 173 115 100 256 271 275 276 279 285 283 288 288 289 286
244 192 181 187 204 235 194 198 218 160 178 206 195 208 203 211 226 225 233 232 230 213 187 168 160 149 144 137 131 159 184 186 237 269 268 268 267 264 268 276 285 291 286 286
254 163 212 94 224 226 208 236 224 195 208 211 207 209 198 218 231 233 228 235 222 192 177 144 141 154 174 173 157 178 243 202 205 270 275 276 261 276 269 269 278 284 282 286
199 145 166 262 284 247 251 236 237 239 221 228 226 223 231 214 235 223 234 232 221 171 146 155 166 167 172 166 188 221 241 182 281 261 276 276 270 271 286 272 280 278 276 281
185 217 207 237 248 229 254 249 234 226 236 224 222 239 231 207 227 216 229 214 172 166 147 153 159 154 167 154 229 259 251 201 236 276 284 283 293 291 290 292 294 291 297 303